Year,Month,Day,Hour,Minute,Value (Times are PST for temperature in C)
2012,08,03,00,00,12.60
2012,08,03,00,01,12.60
2012,08,03,00,02,12.60
2012,08,03,00,03,12.60
2012,08,03,00,04,12.60
2012,08,03,00,05,12.60
2012,08,03,00,06,12.60
2012,08,03,00,07,12.60
2012,08,03,00,08,12.60
2012,08,03,00,09,12.60
2012,08,03,00,10,12.60
2012,08,03,00,11,12.60
2012,08,03,00,12,12.60
2012,08,03,00,13,12.60
2012,08,03,00,14,12.60
2012,08,03,00,15,12.60
2012,08,03,00,16,12.60
2012,08,03,00,17,12.60
2012,08,03,00,18,12.50
2012,08,03,00,19,12.50
2012,08,03,00,20,12.50
2012,08,03,00,21,12.50
2012,08,03,00,22,12.50
2012,08,03,00,23,12.50
2012,08,03,00,24,12.50
2012,08,03,00,25,12.50
2012,08,03,00,26,12.50
2012,08,03,00,27,12.50
2012,08,03,00,28,12.50
2012,08,03,00,29,12.50
2012,08,03,00,30,12.50
2012,08,03,00,31,12.50
2012,08,03,00,32,12.50
2012,08,03,00,33,12.50
2012,08,03,00,34,12.50
2012,08,03,00,35,12.50
2012,08,03,00,36,12.40
2012,08,03,00,37,12.40
2012,08,03,00,38,12.40
2012,08,03,00,39,12.40
2012,08,03,00,40,12.40
2012,08,03,00,41,12.40
2012,08,03,00,42,12.40
2012,08,03,00,43,12.40
2012,08,03,00,44,12.40
2012,08,03,00,45,12.40
2012,08,03,00,46,12.40
2012,08,03,00,47,12.40
2012,08,03,00,48,12.40
2012,08,03,00,49,12.40
2012,08,03,00,50,12.40
2012,08,03,00,51,12.40
2012,08,03,00,52,12.30
2012,08,03,00,53,12.30
2012,08,03,00,54,12.30
2012,08,03,00,55,12.30
2012,08,03,00,56,12.30
2012,08,03,00,57,12.30
2012,08,03,00,58,12.30
2012,08,03,00,59,12.30
2012,08,03,01,00,12.30
2012,08,03,01,01,12.30
2012,08,03,01,02,12.30
2012,08,03,01,03,12.30
2012,08,03,01,04,12.30
2012,08,03,01,05,12.30
2012,08,03,01,06,12.30
2012,08,03,01,07,12.30
2012,08,03,01,08,12.30
2012,08,03,01,09,12.30
2012,08,03,01,10,12.30
2012,08,03,01,11,12.30
2012,08,03,01,12,12.30
2012,08,03,01,13,12.30
2012,08,03,01,14,12.20
2012,08,03,01,15,12.20
2012,08,03,01,16,12.20
2012,08,03,01,17,12.20
2012,08,03,01,18,12.20
2012,08,03,01,19,12.20
2012,08,03,01,20,12.20
2012,08,03,01,21,12.20
2012,08,03,01,22,12.20
2012,08,03,01,23,12.20
2012,08,03,01,24,12.20
2012,08,03,01,25,12.20
2012,08,03,01,26,12.20
2012,08,03,01,27,12.20
2012,08,03,01,28,12.20
2012,08,03,01,29,12.20
2012,08,03,01,30,12.20
2012,08,03,01,31,12.10
2012,08,03,01,32,12.10
2012,08,03,01,33,12.10
2012,08,03,01,34,12.10
2012,08,03,01,35,12.10
2012,08,03,01,36,12.10
2012,08,03,01,37,12.10
2012,08,03,01,38,12.10
2012,08,03,01,39,12.10
2012,08,03,01,40,12.10
2012,08,03,01,41,12.10
2012,08,03,01,42,12.10
2012,08,03,01,43,12.10
2012,08,03,01,44,12.10
2012,08,03,01,45,12.10
2012,08,03,01,46,12.10
2012,08,03,01,47,12.00
2012,08,03,01,48,12.00
2012,08,03,01,49,12.00
2012,08,03,01,50,12.00
2012,08,03,01,51,12.00
2012,08,03,01,52,12.00
2012,08,03,01,53,12.00
2012,08,03,01,54,12.00
2012,08,03,01,55,12.00
2012,08,03,01,56,12.00
2012,08,03,01,57,12.00
2012,08,03,01,58,11.90
2012,08,03,01,59,11.90
2012,08,03,02,00,11.90
2012,08,03,02,01,11.90
2012,08,03,02,02,11.90
2012,08,03,02,03,11.90
2012,08,03,02,04,11.90
2012,08,03,02,05,11.90
2012,08,03,02,06,11.90
2012,08,03,02,07,11.90
2012,08,03,02,08,11.90
2012,08,03,02,09,11.90
2012,08,03,02,10,11.90
2012,08,03,02,11,11.90
2012,08,03,02,12,11.90
2012,08,03,02,13,11.90
2012,08,03,02,14,11.80
2012,08,03,02,15,11.80
2012,08,03,02,16,11.80
2012,08,03,02,17,11.80
2012,08,03,02,18,11.80
2012,08,03,02,19,11.80
2012,08,03,02,20,11.80
2012,08,03,02,21,11.80
2012,08,03,02,22,11.80
2012,08,03,02,23,11.80
2012,08,03,02,24,11.80
2012,08,03,02,25,11.80
2012,08,03,02,26,11.80
2012,08,03,02,27,11.80
2012,08,03,02,28,11.80
2012,08,03,02,29,11.70
2012,08,03,02,30,11.70
2012,08,03,02,31,11.70
2012,08,03,02,32,11.70
2012,08,03,02,33,11.70
2012,08,03,02,34,11.70
2012,08,03,02,35,11.70
2012,08,03,02,36,11.70
2012,08,03,02,37,11.70
2012,08,03,02,38,11.70
2012,08,03,02,39,11.70
2012,08,03,02,40,11.70
2012,08,03,02,41,11.70
2012,08,03,02,42,11.70
2012,08,03,02,43,11.70
2012,08,03,02,44,11.70
2012,08,03,02,45,11.70
2012,08,03,02,46,11.60
2012,08,03,02,47,11.60
2012,08,03,02,48,11.60
2012,08,03,02,49,11.60
2012,08,03,02,50,11.60
2012,08,03,02,51,11.60
2012,08,03,02,52,11.60
2012,08,03,02,53,11.60
2012,08,03,02,54,11.60
2012,08,03,02,55,11.60
2012,08,03,02,56,11.60
2012,08,03,02,57,11.60
2012,08,03,02,58,11.60
2012,08,03,02,59,11.60
2012,08,03,03,00,11.60
2012,08,03,03,01,11.60
2012,08,03,03,02,11.60
2012,08,03,03,03,11.60
2012,08,03,03,04,11.60
2012,08,03,03,05,11.60
2012,08,03,03,06,11.60
2012,08,03,03,07,11.50
2012,08,03,03,08,11.60
2012,08,03,03,09,11.50
2012,08,03,03,10,11.50
2012,08,03,03,11,11.50
2012,08,03,03,12,11.50
2012,08,03,03,13,11.50
2012,08,03,03,14,11.50
2012,08,03,03,15,11.50
2012,08,03,03,16,11.50
2012,08,03,03,17,11.50
2012,08,03,03,18,11.50
2012,08,03,03,19,11.50
2012,08,03,03,20,11.50
2012,08,03,03,21,11.50
2012,08,03,03,22,11.50
2012,08,03,03,23,11.40
2012,08,03,03,24,11.40
2012,08,03,03,25,11.40
2012,08,03,03,26,11.40
2012,08,03,03,27,11.50
2012,08,03,03,28,11.40
2012,08,03,03,29,11.50
2012,08,03,03,30,11.50
2012,08,03,03,31,11.50
2012,08,03,03,32,11.50
2012,08,03,03,33,11.50
2012,08,03,03,34,11.50
2012,08,03,03,35,11.50
2012,08,03,03,36,11.50
2012,08,03,03,37,11.50
2012,08,03,03,38,11.40
2012,08,03,03,39,11.40
2012,08,03,03,40,11.40
2012,08,03,03,41,11.40
2012,08,03,03,42,11.40
2012,08,03,03,43,11.40
2012,08,03,03,44,11.40
2012,08,03,03,45,11.40
2012,08,03,03,46,11.40
2012,08,03,03,47,11.40
2012,08,03,03,48,11.40
2012,08,03,03,49,11.40
2012,08,03,03,50,11.40
2012,08,03,03,51,11.40
2012,08,03,03,52,11.40
2012,08,03,03,53,11.40
2012,08,03,03,54,11.40
2012,08,03,03,55,11.40
2012,08,03,03,56,11.30
2012,08,03,03,57,11.30
2012,08,03,03,58,11.30
2012,08,03,03,59,11.30
2012,08,03,04,00,11.30
2012,08,03,04,01,11.30
2012,08,03,04,02,11.30
2012,08,03,04,03,11.30
2012,08,03,04,04,11.30
2012,08,03,04,05,11.20
2012,08,03,04,06,11.20
2012,08,03,04,07,11.20
2012,08,03,04,08,11.20
2012,08,03,04,09,11.20
2012,08,03,04,10,11.20
2012,08,03,04,11,11.20
2012,08,03,04,12,11.20
2012,08,03,04,13,11.20
2012,08,03,04,14,11.20
2012,08,03,04,15,11.20
2012,08,03,04,16,11.20
2012,08,03,04,17,11.20
2012,08,03,04,18,11.20
2012,08,03,04,19,11.20
2012,08,03,04,20,11.20
2012,08,03,04,21,11.20
2012,08,03,04,22,11.20
2012,08,03,04,23,11.10
2012,08,03,04,24,11.10
2012,08,03,04,25,11.10
2012,08,03,04,26,11.10
2012,08,03,04,27,11.10
2012,08,03,04,28,11.10
2012,08,03,04,29,11.10
2012,08,03,04,30,11.10
2012,08,03,04,31,11.10
2012,08,03,04,32,11.10
2012,08,03,04,33,11.10
2012,08,03,04,34,11.10
2012,08,03,04,35,11.10
2012,08,03,04,36,11.00
2012,08,03,04,37,11.00
2012,08,03,04,38,11.00
2012,08,03,04,39,11.00
2012,08,03,04,40,11.00
2012,08,03,04,41,11.00
2012,08,03,04,42,11.00
2012,08,03,04,43,11.00
2012,08,03,04,44,11.00
2012,08,03,04,45,11.00
2012,08,03,04,46,11.00
2012,08,03,04,47,11.10
2012,08,03,04,48,11.10
2012,08,03,04,49,11.10
2012,08,03,04,50,11.10
2012,08,03,04,51,11.10
2012,08,03,04,52,11.00
2012,08,03,04,53,11.00
2012,08,03,04,54,11.00
2012,08,03,04,55,11.00
2012,08,03,04,56,10.90
2012,08,03,04,57,10.90
2012,08,03,04,58,10.90
2012,08,03,04,59,10.90
2012,08,03,05,00,10.90
2012,08,03,05,01,10.80
2012,08,03,05,02,10.80
2012,08,03,05,03,10.80
2012,08,03,05,04,10.80
2012,08,03,05,05,10.80
2012,08,03,05,06,10.90
2012,08,03,05,07,10.90
2012,08,03,05,08,10.90
2012,08,03,05,09,10.90
2012,08,03,05,10,10.90
2012,08,03,05,11,10.90
2012,08,03,05,12,11.00
2012,08,03,05,13,10.90
2012,08,03,05,14,10.90
2012,08,03,05,15,10.90
2012,08,03,05,16,10.90
2012,08,03,05,17,10.90
2012,08,03,05,18,10.80
2012,08,03,05,19,10.80
2012,08,03,05,20,10.80
2012,08,03,05,21,10.80
2012,08,03,05,22,10.70
2012,08,03,05,23,10.70
2012,08,03,05,24,10.70
2012,08,03,05,25,10.70
2012,08,03,05,26,10.70
2012,08,03,05,27,10.70
2012,08,03,05,28,10.70
2012,08,03,05,29,10.70
2012,08,03,05,30,10.70
2012,08,03,05,31,10.70
2012,08,03,05,32,10.70
2012,08,03,05,33,10.70
2012,08,03,05,34,10.70
2012,08,03,05,35,10.60
2012,08,03,05,36,10.60
2012,08,03,05,37,10.60
2012,08,03,05,38,10.60
2012,08,03,05,39,10.60
2012,08,03,05,40,10.70
2012,08,03,05,41,10.70
2012,08,03,05,42,10.70
2012,08,03,05,43,10.70
2012,08,03,05,44,10.80
2012,08,03,05,45,10.80
2012,08,03,05,46,10.80
2012,08,03,05,47,10.80
2012,08,03,05,48,10.80
2012,08,03,05,49,10.80
2012,08,03,05,50,10.80
2012,08,03,05,51,10.70
2012,08,03,05,52,10.70
2012,08,03,05,53,10.70
2012,08,03,05,54,10.60
2012,08,03,05,55,10.60
2012,08,03,05,56,10.60
2012,08,03,05,57,10.60
2012,08,03,05,58,10.50
2012,08,03,05,59,10.50
2012,08,03,06,00,10.50
2012,08,03,06,01,10.40
2012,08,03,06,02,10.40
2012,08,03,06,03,10.40
2012,08,03,06,04,10.40
2012,08,03,06,05,10.40
2012,08,03,06,06,10.40
2012,08,03,06,07,10.40
2012,08,03,06,08,10.50
2012,08,03,06,09,10.50
2012,08,03,06,10,10.50
2012,08,03,06,11,10.50
2012,08,03,06,12,10.50
2012,08,03,06,13,10.60
2012,08,03,06,14,10.60
2012,08,03,06,15,10.60
2012,08,03,06,16,10.60
2012,08,03,06,17,10.60
2012,08,03,06,18,10.60
2012,08,03,06,19,10.60
2012,08,03,06,20,10.70
2012,08,03,06,21,10.70
2012,08,03,06,22,10.70
2012,08,03,06,23,10.70
2012,08,03,06,24,10.70
2012,08,03,06,25,10.70
2012,08,03,06,26,10.70
2012,08,03,06,27,10.70
2012,08,03,06,28,10.70
2012,08,03,06,29,10.70
2012,08,03,06,30,10.70
2012,08,03,06,31,10.60
2012,08,03,06,32,10.60
2012,08,03,06,33,10.60
2012,08,03,06,34,10.70
2012,08,03,06,35,10.70
2012,08,03,06,36,10.70
2012,08,03,06,37,10.70
2012,08,03,06,38,10.70
2012,08,03,06,39,10.80
2012,08,03,06,40,10.80
2012,08,03,06,41,10.80
2012,08,03,06,42,10.80
2012,08,03,06,43,10.80
2012,08,03,06,44,10.90
2012,08,03,06,45,10.90
2012,08,03,06,46,11.00
2012,08,03,06,47,11.00
2012,08,03,06,48,11.10
2012,08,03,06,49,11.10
2012,08,03,06,50,11.20
2012,08,03,06,51,11.20
2012,08,03,06,52,11.20
2012,08,03,06,53,11.20
2012,08,03,06,54,11.20
2012,08,03,06,55,11.20
2012,08,03,06,56,11.30
2012,08,03,06,57,11.30
2012,08,03,06,58,11.30
2012,08,03,06,59,11.40
2012,08,03,07,00,11.40
2012,08,03,07,01,11.40
2012,08,03,07,02,11.50
2012,08,03,07,03,11.50
2012,08,03,07,04,11.60
2012,08,03,07,05,11.70
2012,08,03,07,06,11.80
2012,08,03,07,07,11.80
2012,08,03,07,08,11.90
2012,08,03,07,09,12.00
2012,08,03,07,10,12.00
2012,08,03,07,11,12.10
2012,08,03,07,12,12.20
2012,08,03,07,13,12.30
2012,08,03,07,14,12.30
2012,08,03,07,15,12.40
2012,08,03,07,16,12.50
2012,08,03,07,17,12.60
2012,08,03,07,18,12.70
2012,08,03,07,19,12.70
2012,08,03,07,20,12.80
2012,08,03,07,21,12.90
2012,08,03,07,22,13.00
2012,08,03,07,23,13.10
2012,08,03,07,24,13.30
2012,08,03,07,25,13.40
2012,08,03,07,26,13.50
2012,08,03,07,27,13.60
2012,08,03,07,28,13.70
2012,08,03,07,29,13.70
2012,08,03,07,30,13.80
2012,08,03,07,31,13.90
2012,08,03,07,32,14.00
2012,08,03,07,33,14.10
2012,08,03,07,34,14.20
2012,08,03,07,35,14.30
2012,08,03,07,36,14.50
2012,08,03,07,37,14.60
2012,08,03,07,38,14.80
2012,08,03,07,39,14.90
2012,08,03,07,40,15.10
2012,08,03,07,41,15.20
2012,08,03,07,42,15.30
2012,08,03,07,43,15.40
2012,08,03,07,44,15.60
2012,08,03,07,45,15.70
2012,08,03,07,46,15.80
2012,08,03,07,47,15.80
2012,08,03,07,48,15.90
2012,08,03,07,49,16.00
2012,08,03,07,50,16.10
2012,08,03,07,51,16.20
2012,08,03,07,52,16.30
2012,08,03,07,53,16.40
2012,08,03,07,54,16.60
2012,08,03,07,55,16.70
2012,08,03,07,56,16.80
2012,08,03,07,57,16.90
2012,08,03,07,58,16.90
2012,08,03,07,59,17.00
2012,08,03,08,00,17.00
2012,08,03,08,01,17.10
2012,08,03,08,02,17.10
2012,08,03,08,03,17.20
2012,08,03,08,04,17.20
2012,08,03,08,05,17.30
2012,08,03,08,06,17.30
2012,08,03,08,07,17.40
2012,08,03,08,08,17.40
2012,08,03,08,09,17.50
2012,08,03,08,10,17.60
2012,08,03,08,11,17.70
2012,08,03,08,12,17.70
2012,08,03,08,13,17.80
2012,08,03,08,14,17.90
2012,08,03,08,15,18.00
2012,08,03,08,16,18.00
2012,08,03,08,17,18.10
2012,08,03,08,18,18.20
2012,08,03,08,19,18.20
2012,08,03,08,20,18.30
2012,08,03,08,21,18.40
2012,08,03,08,22,18.40
2012,08,03,08,23,18.50
2012,08,03,08,24,18.50
2012,08,03,08,25,18.60
2012,08,03,08,26,18.70
2012,08,03,08,27,18.80
2012,08,03,08,28,18.80
2012,08,03,08,29,19.00
2012,08,03,08,30,19.10
2012,08,03,08,31,19.10
2012,08,03,08,32,19.20
2012,08,03,08,33,19.30
2012,08,03,08,34,19.40
2012,08,03,08,35,19.50
2012,08,03,08,36,19.50
2012,08,03,08,37,19.50
2012,08,03,08,38,19.50
2012,08,03,08,39,19.50
2012,08,03,08,40,19.50
2012,08,03,08,41,19.50
2012,08,03,08,42,19.60
2012,08,03,08,43,19.60
2012,08,03,08,44,19.60
2012,08,03,08,45,19.70
2012,08,03,08,46,19.70
2012,08,03,08,47,19.70
2012,08,03,08,48,19.70
2012,08,03,08,49,19.70
2012,08,03,08,50,19.80
2012,08,03,08,51,19.80
2012,08,03,08,52,19.90
2012,08,03,08,53,20.00
2012,08,03,08,54,20.10
2012,08,03,08,55,20.10
2012,08,03,08,56,20.10
2012,08,03,08,57,20.20
2012,08,03,08,58,20.20
2012,08,03,08,59,20.30
2012,08,03,09,00,20.40
2012,08,03,09,01,20.50
2012,08,03,09,02,20.50
2012,08,03,09,03,20.60
2012,08,03,09,04,20.60
2012,08,03,09,05,20.70
2012,08,03,09,06,20.70
2012,08,03,09,07,20.70
2012,08,03,09,08,20.70
2012,08,03,09,09,20.80
2012,08,03,09,10,20.80
2012,08,03,09,11,20.90
2012,08,03,09,12,21.00
2012,08,03,09,13,21.10
2012,08,03,09,14,21.10
2012,08,03,09,15,21.20
2012,08,03,09,16,21.20
2012,08,03,09,17,21.30
2012,08,03,09,18,21.30
2012,08,03,09,19,21.30
2012,08,03,09,20,21.30
2012,08,03,09,21,21.30
2012,08,03,09,22,21.20
2012,08,03,09,23,21.20
2012,08,03,09,24,21.20
2012,08,03,09,25,21.30
2012,08,03,09,26,21.30
2012,08,03,09,27,21.40
2012,08,03,09,28,21.50
2012,08,03,09,29,21.50
2012,08,03,09,30,21.60
2012,08,03,09,31,21.60
2012,08,03,09,32,21.60
2012,08,03,09,33,21.70
2012,08,03,09,34,21.70
2012,08,03,09,35,21.70
2012,08,03,09,36,21.70
2012,08,03,09,37,21.60
2012,08,03,09,38,21.50
2012,08,03,09,39,21.40
2012,08,03,09,40,21.40
2012,08,03,09,41,21.40
2012,08,03,09,42,21.50
2012,08,03,09,43,21.40
2012,08,03,09,44,21.50
2012,08,03,09,45,21.50
2012,08,03,09,46,21.60
2012,08,03,09,47,21.60
2012,08,03,09,48,21.60
2012,08,03,09,49,21.60
2012,08,03,09,50,21.60
2012,08,03,09,51,21.70
2012,08,03,09,52,21.70
2012,08,03,09,53,21.70
2012,08,03,09,54,21.80
2012,08,03,09,55,21.80
2012,08,03,09,56,21.90
2012,08,03,09,57,22.00
2012,08,03,09,58,22.00
2012,08,03,09,59,22.00
2012,08,03,10,00,22.10
2012,08,03,10,01,22.10
2012,08,03,10,02,22.10
2012,08,03,10,03,22.10
2012,08,03,10,04,22.10
2012,08,03,10,05,22.10
2012,08,03,10,06,22.00
2012,08,03,10,07,22.00
2012,08,03,10,08,22.10
2012,08,03,10,09,22.10
2012,08,03,10,10,22.20
2012,08,03,10,11,22.20
2012,08,03,10,12,22.20
2012,08,03,10,13,22.20
2012,08,03,10,14,22.30
2012,08,03,10,15,22.40
2012,08,03,10,16,22.40
2012,08,03,10,17,22.40
2012,08,03,10,18,22.40
2012,08,03,10,19,22.40
2012,08,03,10,20,22.40
2012,08,03,10,21,22.40
2012,08,03,10,22,22.30
2012,08,03,10,23,22.20
2012,08,03,10,24,22.20
2012,08,03,10,25,22.20
2012,08,03,10,26,22.20
2012,08,03,10,27,22.30
2012,08,03,10,28,22.30
2012,08,03,10,29,22.40
2012,08,03,10,30,22.40
2012,08,03,10,31,22.40
2012,08,03,10,32,22.50
2012,08,03,10,33,22.50
2012,08,03,10,34,22.50
2012,08,03,10,35,22.50
2012,08,03,10,36,22.60
2012,08,03,10,37,22.70
2012,08,03,10,38,22.70
2012,08,03,10,39,22.70
2012,08,03,10,40,22.70
2012,08,03,10,41,22.70
2012,08,03,10,42,22.60
2012,08,03,10,43,22.60
2012,08,03,10,44,22.60
2012,08,03,10,45,22.70
2012,08,03,10,46,22.70
2012,08,03,10,47,22.70
2012,08,03,10,48,22.80
2012,08,03,10,49,22.80
2012,08,03,10,50,22.80
2012,08,03,10,51,22.90
2012,08,03,10,52,23.00
2012,08,03,10,53,23.10
2012,08,03,10,54,23.20
2012,08,03,10,55,23.30
2012,08,03,10,56,23.30
2012,08,03,10,57,23.20
2012,08,03,10,58,23.20
2012,08,03,10,59,23.30
2012,08,03,11,00,23.30
2012,08,03,11,01,23.40
2012,08,03,11,02,23.50
2012,08,03,11,03,23.60
2012,08,03,11,04,23.60
2012,08,03,11,05,23.70
2012,08,03,11,06,23.60
2012,08,03,11,07,23.60
2012,08,03,11,08,23.60
2012,08,03,11,09,23.60
2012,08,03,11,10,23.60
2012,08,03,11,11,23.70
2012,08,03,11,12,23.80
2012,08,03,11,13,23.80
2012,08,03,11,14,23.80
2012,08,03,11,15,23.80
2012,08,03,11,16,23.80
2012,08,03,11,17,23.80
2012,08,03,11,18,23.80
2012,08,03,11,19,23.80
2012,08,03,11,20,23.70
2012,08,03,11,21,23.70
2012,08,03,11,22,23.70
2012,08,03,11,23,23.70
2012,08,03,11,24,23.70
2012,08,03,11,25,23.70
2012,08,03,11,26,23.70
2012,08,03,11,27,23.70
2012,08,03,11,28,23.70
2012,08,03,11,29,23.70
2012,08,03,11,30,23.60
2012,08,03,11,31,23.60
2012,08,03,11,32,23.60
2012,08,03,11,33,23.70
2012,08,03,11,34,23.70
2012,08,03,11,35,23.80
2012,08,03,11,36,23.90
2012,08,03,11,37,23.90
2012,08,03,11,38,23.90
2012,08,03,11,39,24.00
2012,08,03,11,40,24.10
2012,08,03,11,41,24.10
2012,08,03,11,42,24.20
2012,08,03,11,43,24.20
2012,08,03,11,44,24.20
2012,08,03,11,45,24.20
2012,08,03,11,46,24.20
2012,08,03,11,47,24.20
2012,08,03,11,48,24.10
2012,08,03,11,49,23.90
2012,08,03,11,50,23.70
2012,08,03,11,51,23.60
2012,08,03,11,52,23.50
2012,08,03,11,53,23.40
2012,08,03,11,54,23.40
2012,08,03,11,55,23.40
2012,08,03,11,56,23.40
2012,08,03,11,57,23.40
2012,08,03,11,58,23.40
2012,08,03,11,59,23.30
2012,08,03,12,00,23.20
2012,08,03,12,01,23.10
2012,08,03,12,02,23.10
2012,08,03,12,03,23.20
2012,08,03,12,04,23.40
2012,08,03,12,05,23.50
2012,08,03,12,06,23.60
2012,08,03,12,07,23.70
2012,08,03,12,08,23.70
2012,08,03,12,09,23.70
2012,08,03,12,10,23.80
2012,08,03,12,11,23.90
2012,08,03,12,12,24.00
2012,08,03,12,13,24.00
2012,08,03,12,14,24.10
2012,08,03,12,15,24.20
2012,08,03,12,16,24.20
2012,08,03,12,17,24.20
2012,08,03,12,18,24.20
2012,08,03,12,19,24.10
2012,08,03,12,20,24.10
2012,08,03,12,21,24.10
2012,08,03,12,22,24.10
2012,08,03,12,23,24.10
2012,08,03,12,24,24.10
2012,08,03,12,25,24.00
2012,08,03,12,26,23.90
2012,08,03,12,27,23.80
2012,08,03,12,28,23.80
2012,08,03,12,29,23.70
2012,08,03,12,30,23.70
2012,08,03,12,31,23.70
2012,08,03,12,32,23.70
2012,08,03,12,33,23.70
2012,08,03,12,34,23.60
2012,08,03,12,35,23.50
2012,08,03,12,36,23.50
2012,08,03,12,37,23.50
2012,08,03,12,38,23.50
2012,08,03,12,39,23.60
2012,08,03,12,40,23.70
2012,08,03,12,41,23.70
2012,08,03,12,42,23.80
2012,08,03,12,43,23.80
2012,08,03,12,44,23.90
2012,08,03,12,45,23.90
2012,08,03,12,46,23.80
2012,08,03,12,47,23.60
2012,08,03,12,48,23.40
2012,08,03,12,49,23.30
2012,08,03,12,50,23.20
2012,08,03,12,51,23.20
2012,08,03,12,52,23.20
2012,08,03,12,53,23.20
2012,08,03,12,54,23.10
2012,08,03,12,55,23.20
2012,08,03,12,56,23.20
2012,08,03,12,57,23.20
2012,08,03,12,58,23.20
2012,08,03,12,59,23.20
2012,08,03,13,00,23.20
2012,08,03,13,01,23.30
2012,08,03,13,02,23.30
2012,08,03,13,03,23.20
2012,08,03,13,04,23.10
2012,08,03,13,05,23.00
2012,08,03,13,06,23.00
2012,08,03,13,07,22.90
2012,08,03,13,08,23.00
2012,08,03,13,09,23.00
2012,08,03,13,10,23.00
2012,08,03,13,11,23.10
2012,08,03,13,12,23.30
2012,08,03,13,13,23.40
2012,08,03,13,14,23.50
2012,08,03,13,15,23.50
2012,08,03,13,16,23.50
2012,08,03,13,17,23.60
2012,08,03,13,18,23.60
2012,08,03,13,19,23.70
2012,08,03,13,20,23.70
2012,08,03,13,21,23.70
2012,08,03,13,22,23.70
2012,08,03,13,23,23.70
2012,08,03,13,24,23.70
2012,08,03,13,25,23.70
2012,08,03,13,26,23.70
2012,08,03,13,27,23.70
2012,08,03,13,28,23.60
2012,08,03,13,29,23.60
2012,08,03,13,30,23.60
2012,08,03,13,31,23.60
2012,08,03,13,32,23.70
2012,08,03,13,33,23.80
2012,08,03,13,34,23.80
2012,08,03,13,35,23.80
2012,08,03,13,36,23.80
2012,08,03,13,37,23.80
2012,08,03,13,38,23.80
2012,08,03,13,39,23.90
2012,08,03,13,40,23.90
2012,08,03,13,41,23.80
2012,08,03,13,42,23.90
2012,08,03,13,43,23.90
2012,08,03,13,44,24.00
2012,08,03,13,45,24.10
2012,08,03,13,46,24.20
2012,08,03,13,47,24.30
2012,08,03,13,48,24.30
2012,08,03,13,49,24.30
2012,08,03,13,50,24.20
2012,08,03,13,51,24.30
2012,08,03,13,52,24.30
2012,08,03,13,53,24.30
2012,08,03,13,54,24.40
2012,08,03,13,55,24.40
2012,08,03,13,56,24.40
2012,08,03,13,57,24.40
2012,08,03,13,58,24.40
2012,08,03,13,59,24.40
2012,08,03,14,00,24.40
2012,08,03,14,01,24.40
2012,08,03,14,02,24.40
2012,08,03,14,03,24.40
2012,08,03,14,04,24.50
2012,08,03,14,05,24.50
2012,08,03,14,06,24.60
2012,08,03,14,07,24.60
2012,08,03,14,08,24.50
2012,08,03,14,09,24.50
2012,08,03,14,10,24.50
2012,08,03,14,11,24.40
2012,08,03,14,12,24.40
2012,08,03,14,13,24.40
2012,08,03,14,14,24.30
2012,08,03,14,15,24.30
2012,08,03,14,16,24.30
2012,08,03,14,17,24.20
2012,08,03,14,18,24.30
2012,08,03,14,19,24.30
2012,08,03,14,20,24.30
2012,08,03,14,21,24.30
2012,08,03,14,22,24.20
2012,08,03,14,23,24.20
2012,08,03,14,24,24.30
2012,08,03,14,25,24.20
2012,08,03,14,26,24.20
2012,08,03,14,27,24.20
2012,08,03,14,28,24.30
2012,08,03,14,29,24.40
2012,08,03,14,30,24.50
2012,08,03,14,31,24.50
2012,08,03,14,32,24.50
2012,08,03,14,33,24.40
2012,08,03,14,34,24.40
2012,08,03,14,35,24.40
2012,08,03,14,36,24.40
2012,08,03,14,37,24.50
2012,08,03,14,38,24.60
2012,08,03,14,39,24.60
2012,08,03,14,40,24.60
2012,08,03,14,41,24.70
2012,08,03,14,42,24.70
2012,08,03,14,43,24.70
2012,08,03,14,44,24.70
2012,08,03,14,45,24.70
2012,08,03,14,46,24.80
2012,08,03,14,47,24.80
2012,08,03,14,48,24.80
2012,08,03,14,49,24.80
2012,08,03,14,50,24.90
2012,08,03,14,51,25.00
2012,08,03,14,52,25.10
2012,08,03,14,53,25.10
2012,08,03,14,54,25.10
2012,08,03,14,55,25.00
2012,08,03,14,56,24.90
2012,08,03,14,57,24.90
2012,08,03,14,58,24.80
2012,08,03,14,59,24.80
2012,08,03,15,00,24.90
2012,08,03,15,01,25.00
2012,08,03,15,02,25.00
2012,08,03,15,03,25.00
2012,08,03,15,04,25.00
2012,08,03,15,05,25.10
2012,08,03,15,06,25.10
2012,08,03,15,07,25.10
2012,08,03,15,08,25.20
2012,08,03,15,09,25.30
2012,08,03,15,10,25.30
2012,08,03,15,11,25.40
2012,08,03,15,12,25.40
2012,08,03,15,13,25.50
2012,08,03,15,14,25.60
2012,08,03,15,15,25.70
2012,08,03,15,16,25.70
2012,08,03,15,17,25.70
2012,08,03,15,18,25.80
2012,08,03,15,19,25.80
2012,08,03,15,20,25.80
2012,08,03,15,21,25.80
2012,08,03,15,22,25.80
2012,08,03,15,23,25.80
2012,08,03,15,24,25.90
2012,08,03,15,25,25.90
2012,08,03,15,26,25.90
2012,08,03,15,27,25.90
2012,08,03,15,28,25.90
2012,08,03,15,29,25.80
2012,08,03,15,30,25.80
2012,08,03,15,31,25.80
2012,08,03,15,32,25.80
2012,08,03,15,33,25.80
2012,08,03,15,34,25.70
2012,08,03,15,35,25.70
2012,08,03,15,36,25.60
2012,08,03,15,37,25.60
2012,08,03,15,38,25.60
2012,08,03,15,39,25.70
2012,08,03,15,40,25.70
2012,08,03,15,41,25.70
2012,08,03,15,42,25.80
2012,08,03,15,43,25.80
2012,08,03,15,44,25.80
2012,08,03,15,45,25.70
2012,08,03,15,46,25.70
2012,08,03,15,47,25.70
2012,08,03,15,48,25.70
2012,08,03,15,49,25.70
2012,08,03,15,50,25.70
2012,08,03,15,51,25.70
2012,08,03,15,52,25.70
2012,08,03,15,53,25.80
2012,08,03,15,54,25.80
2012,08,03,15,55,25.80
2012,08,03,15,56,25.80
2012,08,03,15,57,25.80
2012,08,03,15,58,25.80
2012,08,03,15,59,25.70
2012,08,03,16,00,25.60
2012,08,03,16,01,25.50
2012,08,03,16,02,25.50
2012,08,03,16,03,25.40
2012,08,03,16,04,25.40
2012,08,03,16,05,25.40
2012,08,03,16,06,25.30
2012,08,03,16,07,25.30
2012,08,03,16,08,25.30
2012,08,03,16,09,25.30
2012,08,03,16,10,25.20
2012,08,03,16,11,25.20
2012,08,03,16,12,25.20
2012,08,03,16,13,25.20
2012,08,03,16,14,25.30
2012,08,03,16,15,25.40
2012,08,03,16,16,25.40
2012,08,03,16,17,25.40
2012,08,03,16,18,25.40
2012,08,03,16,19,25.50
2012,08,03,16,20,25.50
2012,08,03,16,21,25.50
2012,08,03,16,22,25.50
2012,08,03,16,23,25.50
2012,08,03,16,24,25.40
2012,08,03,16,25,25.40
2012,08,03,16,26,25.30
2012,08,03,16,27,25.20
2012,08,03,16,28,25.20
2012,08,03,16,29,25.20
2012,08,03,16,30,25.20
2012,08,03,16,31,25.20
2012,08,03,16,32,25.20
2012,08,03,16,33,25.20
2012,08,03,16,34,25.20
2012,08,03,16,35,25.30
2012,08,03,16,36,25.30
2012,08,03,16,37,25.20
2012,08,03,16,38,25.20
2012,08,03,16,39,25.20
2012,08,03,16,40,25.20
2012,08,03,16,41,25.20
2012,08,03,16,42,25.30
2012,08,03,16,43,25.30
2012,08,03,16,44,25.30
2012,08,03,16,45,25.30
2012,08,03,16,46,25.40
2012,08,03,16,47,25.40
2012,08,03,16,48,25.40
2012,08,03,16,49,25.40
2012,08,03,16,50,25.40
2012,08,03,16,51,25.50
2012,08,03,16,52,25.50
2012,08,03,16,53,25.60
2012,08,03,16,54,25.60
2012,08,03,16,55,25.60
2012,08,03,16,56,25.60
2012,08,03,16,57,25.60
2012,08,03,16,58,25.60
2012,08,03,16,59,25.50
2012,08,03,17,00,25.50
2012,08,03,17,01,25.50
2012,08,03,17,02,25.50
2012,08,03,17,03,25.60
2012,08,03,17,04,25.60
2012,08,03,17,05,25.60
2012,08,03,17,06,25.70
2012,08,03,17,07,25.70
2012,08,03,17,08,25.80
2012,08,03,17,09,25.80
2012,08,03,17,10,25.80
2012,08,03,17,11,25.80
2012,08,03,17,12,25.80
2012,08,03,17,13,25.80
2012,08,03,17,14,25.90
2012,08,03,17,15,25.90
2012,08,03,17,16,25.90
2012,08,03,17,17,25.90
2012,08,03,17,18,25.90
2012,08,03,17,19,25.90